| time (UTC) | temp F | wind direction | speed knots | gust knots | rain 1hr in | rain 24hr in | rain mn in | humidity % | barometer mb |
| 20260507010329 | 54 | 260 | 1.7 | 4.3 | 0.00 | 0.00 | 0.37 | 63 | 988.1 |
| 20260507005135 | 54 | 143 | 0.9 | 3.5 | 0.00 | 0.00 | 0.37 | 65 | 987.8 |
| 20260507004543 | 54 | 354 | 2.6 | 4.3 | 0.00 | 0.00 | 0.37 | 63 | 987.8 |
| 20260507003345 | 55 | 162 | 1.7 | 2.6 | 0.00 | 0.00 | 0.37 | 63 | 987.8 |
| 20260507002729 | 55 | 21 | 0.9 | 2.6 | 0.00 | 0.00 | 0.37 | 64 | 987.4 |
| 20260507001548 | 55 | 3 | 0.0 | 6.1 | 0.00 | 0.00 | 0.37 | 63 | 987.4 |
| 20260507000314 | 56 | 52 | 1.7 | 4.3 | 0.00 | 0.00 | 0.37 | 60 | 987.1 |
| 20260506235729 | 56 | 166 | 0.9 | 6.1 | 0.00 | 0.00 | 0.37 | 60 | 986.7 |
| 20260506235133 | 56 | 180 | 1.7 | 7.8 | 0.00 | 0.00 | 0.37 | 61 | 987.1 |
| 20260506234523 | 56 | 21 | 2.6 | 6.1 | 0.00 | 0.00 | 0.37 | 62 | 987.1 |
| 20260506233939 | 56 | 210 | 0.0 | 5.2 | 0.00 | 0.00 | 0.37 | 61 | 987.1 |
| 20260506233351 | 57 | 221 | 4.3 | 6.1 | 0.00 | 0.00 | 0.37 | 60 | 987.1 |
| 20260506232743 | 57 | 359 | 2.6 | 3.5 | 0.00 | 0.00 | 0.37 | 61 | 987.1 |
| 20260506232149 | 57 | 210 | 5.2 | 7.8 | 0.00 | 0.00 | 0.37 | 60 | 987.1 |
| 20260506231525 | 57 | 329 | 3.5 | 7.0 | 0.00 | 0.00 | 0.37 | 60 | 987.4 |
| 20260506230932 | 58 | 201 | 2.6 | 7.0 | 0.00 | 0.00 | 0.37 | 60 | 987.4 |
| 20260506230329 | 58 | 19 | 2.6 | 4.3 | 0.00 | 0.00 | 0.37 | 59 | 987.4 |
| 20260506225711 | 58 | 222 | 5.2 | 7.8 | 0.00 | 0.00 | 0.37 | 58 | 987.4 |
| 20260506225110 | 58 | 53 | 0.0 | 8.7 | 0.00 | 0.00 | 0.37 | 58 | 987.4 |
| 20260506224517 | 59 | 199 | 0.0 | 2.6 | 0.00 | 0.00 | 0.37 | 59 | 987.1 |
| 20260506223932 | 59 | 115 | 0.0 | 3.5 | 0.00 | 0.00 | 0.37 | 63 | 987.4 |
| 20260506223327 | 59 | 13 | 0.9 | 3.5 | 0.00 | 0.00 | 0.37 | 59 | 987.8 |
| 20260506222722 | 60 | 16 | 1.7 | 3.5 | 0.00 | 0.00 | 0.37 | 60 | 987.4 |
| 20260506222145 | 60 | 56 | 0.0 | 4.3 | 0.00 | 0.00 | 0.37 | 57 | 987.4 |
| 20260506221515 | 60 | 346 | 2.6 | 3.5 | 0.00 | 0.00 | 0.37 | 55 | 987.1 |
| 20260506220918 | 60 | 224 | 0.9 | 4.3 | 0.00 | 0.00 | 0.37 | 54 | 987.1 |
| 20260506220343 | 60 | 338 | 2.6 | 3.5 | 0.00 | 0.00 | 0.37 | 55 | 987.1 |
| 20260506215738 | 61 | 227 | 1.7 | 3.5 | 0.00 | 0.00 | 0.37 | 55 | 986.7 |
| 20260506215142 | 61 | 5 | 0.9 | 2.6 | 0.00 | 0.00 | 0.37 | 56 | 986.7 |
| 20260506214549 | 60 | 35 | 2.6 | 4.3 | 0.00 | 0.00 | 0.37 | 52 | 986.7 |
| 20260506213317 | 61 | 40 | 0.0 | 3.5 | 0.00 | 0.00 | 0.37 | 52 | 986.4 |
| 20260506212713 | 61 | 338 | 2.6 | 3.5 | 0.00 | 0.00 | 0.37 | 52 | 986.4 |
| 20260506212127 | 62 | 202 | 1.7 | 4.3 | 0.00 | 0.00 | 0.37 | 53 | 986.7 |
| 20260506210930 | 60 | 256 | 1.7 | 5.2 | 0.00 | 0.00 | 0.37 | 55 | 986.4 |
| 20260506210347 | 61 | 248 | 0.9 | 2.6 | 0.00 | 0.00 | 0.37 | 55 | 986.4 |
| 20260506204531 | 63 | 205 | 3.5 | 7.8 | 0.00 | 0.00 | 0.37 | 50 | 986.4 |
| 20260506203311 | 63 | 220 | 4.3 | 5.2 | 0.00 | 0.00 | 0.37 | 52 | 986.1 |
| 20260506202713 | 64 | 335 | 4.3 | 8.7 | 0.00 | 0.00 | 0.37 | 48 | 986.4 |
| 20260506201533 | 63 | 240 | 2.6 | 5.2 | 0.00 | 0.00 | 0.37 | 52 | 986.1 |
| 20260506200314 | 61 | 275 | 0.9 | 6.1 | 0.00 | 0.00 | 0.37 | 57 | 986.1 |
| 20260506195752 | 64 | 341 | 2.6 | 11.3 | 0.00 | 0.00 | 0.37 | 56 | 986.4 |
| 20260506194536 | 63 | 286 | 1.7 | 6.1 | 0.00 | 0.00 | 0.37 | 58 | 986.1 |
| 20260506193953 | 62 | 234 | 1.7 | 6.1 | 0.00 | 0.00 | 0.37 | 58 | 986.1 |
| 20260506193353 | 62 | 197 | 3.5 | 7.0 | 0.00 | 0.00 | 0.37 | 55 | 986.1 |
| 20260506192743 | 63 | 79 | 4.3 | 10.4 | 0.00 | 0.00 | 0.37 | 55 | 986.1 |
| 20260506192132 | 65 | 334 | 2.6 | 6.1 | 0.00 | 0.00 | 0.37 | 54 | 986.1 |
| 20260506191543 | 66 | 206 | 2.6 | 8.7 | 0.00 | 0.00 | 0.37 | 51 | 986.4 |
| 20260506190913 | 64 | 357 | 1.7 | 8.7 | 0.00 | 0.00 | 0.37 | 57 | 986.4 |
| 20260506190341 | 64 | 195 | 2.6 | 7.0 | 0.00 | 0.00 | 0.37 | 56 | 986.7 |
| 20260506185719 | 63 | 192 | 1.7 | 4.3 | 0.00 | 0.00 | 0.37 | 58 | 986.4 |
| 20260506184536 | 64 | 268 | 0.9 | 4.3 | 0.00 | 0.00 | 0.37 | 61 | 986.4 |
| 20260506183920 | 63 | 215 | 3.5 | 5.2 | 0.00 | 0.00 | 0.37 | 59 | 986.1 |
| 20260506183330 | 62 | 27 | 5.2 | 8.7 | 0.00 | 0.00 | 0.37 | 60 | 986.4 |
| 20260506182741 | 63 | 217 | 3.5 | 7.0 | 0.00 | 0.00 | 0.37 | 62 | 986.4 |
| 20260506181541 | 62 | 6 | 2.6 | 7.8 | 0.00 | 0.00 | 0.37 | 66 | 986.4 |
| 20260506180936 | 61 | 169 | 1.7 | 4.3 | 0.00 | 0.00 | 0.37 | 67 | 986.4 |
| 20260506180354 | 61 | 237 | 2.6 | 7.0 | 0.00 | 0.00 | 0.37 | 65 | 986.7 |
| 20260506175748 | 61 | 271 | 3.5 | 9.6 | 0.00 | 0.00 | 0.37 | 65 | 986.7 |
| 20260506175127 | 62 | 138 | 0.9 | 7.8 | 0.00 | 0.00 | 0.37 | 69 | 986.1 |
| 20260506174531 | 60 | 249 | 0.9 | 7.0 | 0.00 | 0.00 | 0.37 | 69 | 986.4 |
| 20260506173943 | 60 | 226 | 0.9 | 7.0 | 0.00 | 0.00 | 0.37 | 71 | 986.1 |
| 20260506173318 | 61 | 212 | 3.5 | 7.0 | 0.00 | 0.00 | 0.37 | 68 | 986.4 |
| 20260506172712 | 61 | 233 | 3.5 | 7.0 | 0.00 | 0.00 | 0.37 | 70 | 986.7 |
| 20260506172141 | 60 | 197 | 3.5 | 5.2 | 0.00 | 0.00 | 0.37 | 72 | 986.4 |
| 20260506170953 | 59 | 10 | 1.7 | 8.7 | 0.00 | 0.00 | 0.37 | 73 | 986.4 |
| 20260506170310 | 61 | 160 | 1.7 | 3.5 | 0.00 | 0.00 | 0.37 | 72 | 986.4 |
| 20260506163946 | 59 | 209 | 1.7 | 7.0 | 0.00 | 0.00 | 0.37 | 75 | 986.4 |
| 20260506163334 | 61 | 230 | 0.0 | 6.1 | 0.00 | 0.00 | 0.37 | 76 | 986.4 |
| 20260506162749 | 58 | 185 | 0.9 | 5.2 | 0.00 | 0.00 | 0.37 | 81 | 986.1 |
| 20260506162115 | 57 | 339 | 1.7 | 12.2 | 0.00 | 0.00 | 0.37 | 78 | 986.4 |
| 20260506161546 | 59 | 46 | 1.7 | 5.2 | 0.00 | 0.00 | 0.37 | 79 | 986.7 |
| 20260506160934 | 57 | 225 | 2.6 | 5.2 | 0.00 | 0.00 | 0.37 | 80 | 986.7 |
| 20260506160351 | 57 | 180 | 2.6 | 4.3 | 0.00 | 0.00 | 0.37 | 81 | 986.4 |
| 20260506155712 | 56 | 81 | 2.6 | 6.1 | 0.00 | 0.00 | 0.37 | 79 | 986.4 |
| 20260506155128 | 57 | 251 | 0.9 | 4.3 | 0.00 | 0.00 | 0.37 | 80 | 986.4 |
| 20260506154542 | 56 | 133 | 1.7 | 4.3 | 0.00 | 0.00 | 0.37 | 81 | 986.1 |
| 20260506153930 | 55 | 164 | 2.6 | 4.3 | 0.00 | 0.00 | 0.37 | 82 | 986.1 |
| 20260506153334 | 56 | 185 | 0.9 | 3.5 | 0.00 | 0.00 | 0.37 | 87 | 986.4 |
| 20260506152733 | 55 | 7 | 1.7 | 9.6 | 0.00 | 0.00 | 0.37 | 86 | 986.1 |
| 20260506151533 | 54 | 205 | 1.7 | 5.2 | 0.00 | 0.00 | 0.37 | 86 | 985.7 |
| 20260506150933 | 55 | 23 | 3.5 | 4.3 | 0.00 | 0.00 | 0.37 | 87 | 985.4 |
| 20260506150311 | 54 | 152 | 1.7 | 5.2 | 0.00 | 0.00 | 0.37 | 91 | 985.7 |
| 20260506145750 | 54 | 233 | 0.0 | 3.5 | 0.00 | 0.00 | 0.37 | 92 | 985.7 |
| 20260506145133 | 52 | 74 | 0.9 | 2.6 | 0.00 | 0.00 | 0.37 | 96 | 985.4 |
| 20260506144538 | 51 | 88 | 1.7 | 3.5 | 0.00 | 0.00 | 0.37 | 99 | 985.4 |
| 20260506143929 | 51 | 142 | 1.7 | 4.3 | 0.00 | 0.00 | 0.37 | 99 | 985.4 |
| 20260506143317 | 51 | 56 | 0.9 | 5.2 | 0.00 | 0.00 | 0.37 | 99 | 985.4 |
| 20260506142716 | 50 | 33 | 3.5 | 4.3 | 0.00 | 0.00 | 0.37 | 99 | 985.4 |
| 20260506142117 | 49 | 128 | 3.5 | 3.5 | 0.00 | 0.00 | 0.37 | 99 | 985.4 |
| 20260506141523 | 48 | 98 | 1.7 | 4.3 | 0.00 | 0.00 | 0.37 | 99 | 985.7 |
| 20260506140935 | 49 | 112 | 1.7 | 4.3 | 0.00 | 0.00 | 0.37 | 99 | 985.1 |
| 20260506140343 | 49 | 60 | 1.7 | 6.1 | 0.00 | 0.00 | 0.37 | 99 | 985.1 |
| 20260506135734 | 50 | 69 | 2.6 | 3.5 | 0.00 | 0.00 | 0.37 | 99 | 985.1 |
| 20260506135139 | 48 | 115 | 1.7 | 5.2 | 0.00 | 0.00 | 0.37 | 99 | 985.1 |
| 20260506134512 | 48 | 69 | 2.6 | 6.1 | 0.00 | 0.00 | 0.37 | 99 | 985.1 |
| 20260506133920 | 49 | 344 | 1.7 | 4.3 | 0.00 | 0.00 | 0.37 | 99 | 984.7 |
| 20260506133350 | 49 | 133 | 2.6 | 4.3 | 0.00 | 0.00 | 0.37 | 99 | 984.7 |
| 20260506132744 | 48 | 42 | 2.6 | 4.3 | 0.00 | 0.00 | 0.37 | 99 | 984.4 |
| 20260506132120 | 48 | 129 | 1.7 | 3.5 | 0.00 | 0.00 | 0.37 | 99 | 984.7 |
| 20260506131514 | 48 | 69 | 0.9 | 4.3 | 0.00 | 0.00 | 0.37 | 99 | 984.7 |
| 20260506130920 | 48 | 68 | 1.7 | 3.5 | 0.00 | 0.00 | 0.37 | 99 | 984.7 |
| 20260506125727 | 47 | 119 | 1.7 | 3.5 | 0.00 | 0.00 | 0.37 | 99 | 984.7 |
| 20260506125146 | 47 | 154 | 2.6 | 5.2 | 0.00 | 0.00 | 0.37 | 99 | 984.7 |
| 20260506124511 | 47 | 148 | 1.7 | 5.2 | 0.00 | 0.00 | 0.36 | 99 | 984.4 |
| 20260506123932 | 47 | 147 | 1.7 | 3.5 | 0.00 | 0.00 | 0.36 | 99 | 984.0 |
| 20260506123320 | 47 | 154 | 1.7 | 5.2 | 0.00 | 0.00 | 0.35 | 99 | 984.0 |
| 20260506122715 | 48 | 147 | 1.7 | 3.5 | 0.00 | 0.00 | 0.35 | 99 | 983.7 |
| 20260506122149 | 47 | 170 | 1.7 | 7.0 | 0.00 | 0.00 | 0.35 | 99 | 983.4 |
| 20260506121518 | 48 | 56 | 1.7 | 5.2 | 0.00 | 0.00 | 0.35 | 99 | 983.7 |
| 20260506120310 | 48 | 65 | 1.7 | 5.2 | 0.00 | 0.00 | 0.35 | 99 | 983.4 |
| 20260506115715 | 48 | 33 | 1.7 | 4.3 | 0.00 | 0.00 | 0.35 | 99 | 983.0 |
| 20260506115122 | 48 | 58 | 1.7 | 3.5 | 0.00 | 0.00 | 0.35 | 99 | 982.7 |
| 20260506114533 | 48 | 87 | 1.7 | 5.2 | 0.00 | 0.00 | 0.35 | 99 | 982.7 |
| 20260506113948 | 48 | 86 | 1.7 | 7.8 | 0.00 | 0.00 | 0.35 | 99 | 982.7 |
| 20260506112733 | 49 | 74 | 1.7 | 4.3 | 0.00 | 0.00 | 0.35 | 99 | 982.3 |
| 20260506111515 | 50 | 111 | 1.7 | 7.0 | 0.00 | 0.00 | 0.35 | 99 | 982.3 |
| 20260506110913 | 50 | 119 | 1.7 | 4.3 | 0.00 | 0.00 | 0.34 | 99 | 982.3 |
| 20260506105711 | 50 | 150 | 2.6 | 4.3 | 0.00 | 0.00 | 0.34 | 99 | 982.3 |
| 20260506105146 | 50 | 86 | 2.6 | 4.3 | 0.00 | 0.00 | 0.34 | 99 | 982.3 |
| 20260506103921 | 51 | 119 | 1.7 | 7.8 | 0.00 | 0.00 | 0.33 | 99 | |
| 20260506103351 | 51 | 148 | 2.6 | 4.3 | 0.00 | 0.00 | 0.33 | 99 | |
| 20260506102708 | 51 | 112 | 1.7 | 9.6 | 0.00 | 0.00 | 0.32 | 99 | |
| 20260506102109 | 53 | 33 | 3.5 | 5.2 | 0.00 | 0.00 | 0.32 | 99 | |
| 20260506100950 | 54 | 63 | 2.6 | 5.2 | 0.00 | 0.00 | 0.31 | 99 | |
| 20260506095711 | 56 | 124 | 1.7 | 4.3 | 0.00 | 0.00 | 0.31 | 99 | |
| 20260506095149 | 56 | 61 | 0.9 | 3.5 | 0.00 | 0.00 | 0.31 | 99 | |
| 20260506094538 | 57 | 89 | 0.0 | 3.5 | 0.00 | 0.00 | 0.31 | 99 | |
| 20260506093321 | 57 | 81 | 0.0 | 3.5 | 0.00 | 0.00 | 0.30 | 99 | |
| 20260506092747 | 57 | 70 | 0.9 | 3.5 | 0.00 | 0.00 | 0.28 | 99 | |
| 20260506092113 | 57 | 100 | 1.7 | 3.5 | 0.00 | 0.00 | 0.28 | 99 | |
| 20260506090323 | 57 | 129 | 1.7 | 3.5 | 0.00 | 0.00 | 0.27 | 99 | |
| 20260506085736 | 57 | 102 | 0.0 | 3.5 | 0.00 | 0.00 | 0.26 | 99 | |
| 20260506085114 | 57 | 70 | 1.7 | 4.3 | 0.00 | 0.00 | 0.26 | 99 | |
| 20260506083926 | 57 | 39 | 2.6 | 4.3 | 0.00 | 0.00 | 0.26 | 99 | |
| 20260506083337 | 57 | 78 | 1.7 | 3.5 | 0.00 | 0.00 | 0.26 | 99 | |
| 20260506082737 | 57 | 111 | 0.9 | 3.5 | 0.00 | 0.00 | 0.26 | 99 | |
| 20260506082142 | 57 | 96 | 1.7 | 4.3 | 0.00 | 0.00 | 0.25 | 99 | |
| 20260506081514 | 57 | 68 | 1.7 | 4.3 | 0.00 | 0.00 | 0.25 | 99 | |
| 20260506080930 | 57 | 22 | 1.7 | 3.5 | 0.00 | 0.00 | 0.25 | 99 | |
| 20260506080318 | 57 | 95 | 3.5 | 3.5 | 0.00 | 0.00 | 0.24 | 99 | |
| 20260506073309 | 57 | 126 | 1.7 | 3.5 | 0.00 | 0.00 | 0.22 | 99 | |
| 20260506072709 | 57 | 40 | 1.7 | 4.3 | 0.00 | 0.00 | 0.22 | 99 | |
| 20260506072143 | 58 | 100 | 1.7 | 3.5 | 0.00 | 0.00 | 0.21 | 99 | |
| 20260506071550 | 58 | 69 | 0.9 | 2.6 | 0.00 | 0.00 | 0.21 | 99 | |
| 20260506070908 | 58 | 97 | 1.7 | 2.6 | 0.00 | 0.00 | 0.21 | 99 | |
| 20260506070330 | 58 | 98 | 1.7 | 2.6 | 0.00 | 0.00 | 0.21 | 99 | |
| 20260506062127 | 58 | 114 | 0.0 | 4.3 | 0.00 | 0.00 | 0.16 | 99 | |
| 20260506061510 | 58 | 75 | 1.7 | 4.3 | 0.00 | 0.00 | 0.16 | 99 | |
| 20260506060342 | 58 | 97 | 1.7 | 3.5 | 0.00 | 0.00 | 0.15 | 99 | |
| 20260506050949 | 58 | 91 | 0.0 | 2.6 | 0.00 | 0.00 | 0.12 | 99 | |
| 20260506050336 | 58 | 80 | 0.9 | 2.6 | 0.00 | 0.00 | 0.12 | 99 | 982.3 |
| 20260506044516 | 58 | 97 | 0.9 | 2.6 | 0.00 | 0.00 | 0.09 | 99 | 982.3 |
| 20260506043920 | 58 | 125 | 1.7 | 3.5 | 0.00 | 0.00 | 0.08 | 99 | 982.3 |
| 20260506042725 | 58 | 118 | 0.9 | 2.6 | 0.00 | 0.00 | 0.07 | 99 | 982.7 |
| 20260506042128 | 58 | 97 | 1.7 | 2.6 | 0.00 | 0.00 | 0.06 | 99 | 983.0 |
| 20260506041543 | 59 | 102 | 1.7 | 3.5 | 0.00 | 0.00 | 0.04 | 99 | 983.0 |
| 20260506040349 | 59 | 219 | 0.0 | 0.9 | 0.00 | 0.00 | 0.00 | 99 | 983.4 |
| 20260506035712 | 59 | 153 | 0.9 | 1.7 | 0.00 | 0.00 | 0.04 | 99 | 983.4 |
| 20260506035141 | 59 | 165 | 0.9 | 1.7 | 0.00 | 0.00 | 0.03 | 99 | 983.4 |
| 20260506033949 | 59 | 159 | 0.0 | 1.7 | 0.00 | 0.00 | 0.02 | 99 | 983.4 |
| 20260506033317 | 59 | 137 | 0.0 | 1.7 | 0.00 | 0.00 | 0.02 | 99 | 983.0 |
| 20260506032715 | 59 | 29 | 0.0 | 1.7 | 0.00 | 0.00 | 0.02 | 99 | 982.7 |
| 20260506032147 | 59 | 129 | 0.0 | 0.9 | 0.00 | 0.00 | 0.02 | 99 | 982.7 |
| 20260506031550 | 59 | 154 | 0.0 | 0.9 | 0.00 | 0.00 | 0.02 | 99 | 983.0 |
| 20260506030915 | 59 | 195 | 0.0 | 0.9 | 0.00 | 0.00 | 0.02 | 98 | 983.0 |
| 20260506030347 | 59 | 180 | 0.0 | 0.9 | 0.00 | 0.00 | 0.02 | 98 | 982.7 |
| 20260506025746 | 60 | 214 | 0.0 | 0.9 | 0.00 | 0.00 | 0.02 | 97 | 982.7 |
| 20260506025129 | 60 | 180 | 0.0 | 0.9 | 0.00 | 0.00 | 0.02 | 97 | 982.7 |
| 20260506024518 | 60 | 152 | 0.9 | 1.7 | 0.00 | 0.00 | 0.01 | 96 | 982.7 |
| 20260506023916 | 60 | 189 | 0.9 | 1.7 | 0.00 | 0.00 | 0.01 | 95 | 982.7 |
| 20260506023351 | 61 | 206 | 0.9 | 1.7 | 0.00 | 0.00 | 0.01 | 93 | 983.0 |
| 20260506022716 | 62 | 153 | 0.9 | 1.7 | 0.00 | 0.00 | 0.00 | 91 | 982.7 |
| 20260506022143 | 62 | 187 | 0.9 | 1.7 | 0.00 | 0.00 | 0.00 | 89 | 982.7 |
| 20260506021545 | 62 | 197 | 0.0 | 1.7 | 0.00 | 0.00 | 0.00 | 87 | 982.7 |
| 20260506020946 | 63 | 194 | 1.7 | 1.7 | 0.00 | 0.00 | 0.00 | 85 | 982.7 |
| 20260506020334 | 64 | 177 | 0.9 | 1.7 | 0.00 | 0.00 | 0.00 | 82 | 982.7 |
| 20260506015719 | 65 | 236 | 0.0 | 1.7 | 0.00 | 0.00 | 0.00 | 77 | 982.7 |
| 20260506015150 | 66 | 322 | 0.0 | 1.7 | 0.00 | 0.00 | 0.00 | 73 | 983.0 |
| 20260506014532 | 66 | 128 | 0.0 | 1.7 | 0.00 | 0.00 | 0.00 | 71 | 983.0 |
| 20260506013937 | 67 | 106 | 0.0 | 1.7 | 0.00 | 0.00 | 0.00 | 67 | 982.7 |
| 20260506013345 | 67 | 11 | 2.6 | 3.5 | 0.00 | 0.00 | 0.00 | 67 | 982.3 |
| 20260506012147 | 67 | 142 | 0.0 | 3.5 | 0.00 | 0.00 | 0.00 | 67 | 982.3 |
| 20260506010911 | 68 | 157 | 0.0 | 1.7 | 0.00 | 0.00 | 0.00 | 66 | 982.7 |